AAR324 ZUTF-RKSI

Flight info

Callsign AAR324
Flight time N/A
Altitude 35100
Route K0850S1070 SAGPI9G SAGPI W81 APIMI W275 NSH G212 VYK W34 VAPGU W100 ORAVA W201 UNSEK A326 DONVO G597 AGAVO/N0453F350 Y644 REBIT REBIT1Y
Aircraft A321/M-SDE3FGHIRWY/LB1

Departure

Time N/A
Airport Chengdu Tianfu International Airport (ZUTF)

Arrival

Time 2026-05-07 16:10
Airport Incheon International Airport (RKSI)
Time Latitude Longitude Altitude Speed Heading
2026-05-07 14:51 38.25551 114.28075 35314 ft 535 kts 54°
2026-05-07 14:51 38.27181 114.32344 35313 ft 535 kts 54°
2026-05-07 14:51 38.30420 114.40861 35319 ft 535 kts 54°
2026-05-07 14:52 38.33653 114.49380 35328 ft 534 kts 54°
2026-05-07 14:52 38.36872 114.57901 35330 ft 533 kts 55°
2026-05-07 14:53 38.40077 114.66406 35332 ft 532 kts 55°
2026-05-07 14:53 38.43267 114.74904 35325 ft 531 kts 55°
2026-05-07 14:54 38.46442 114.83388 35320 ft 530 kts 55°
2026-05-07 14:54 38.49610 114.91870 35308 ft 529 kts 56°
2026-05-07 14:55 38.52774 115.00349 35305 ft 528 kts 56°
2026-05-07 14:55 38.55926 115.08813 35307 ft 528 kts 56°
2026-05-07 14:56 38.59052 115.17296 35309 ft 527 kts 57°
2026-05-07 14:56 38.62155 115.25784 35311 ft 527 kts 57°
2026-05-07 14:57 38.65261 115.34257 35307 ft 526 kts 57°
2026-05-07 14:57 38.68371 115.42716 35309 ft 525 kts 57°
2026-05-07 14:58 38.71473 115.51169 35307 ft 524 kts 56°
2026-05-07 14:58 38.75028 115.59182 35308 ft 516 kts 51°
2026-05-07 14:59 38.78678 115.67106 35307 ft 515 kts 51°
2026-05-07 14:59 38.82310 115.75019 35304 ft 515 kts 51°
2026-05-07 15:00 38.85935 115.82932 35302 ft 514 kts 51°
2026-05-07 15:00 38.89552 115.90844 35300 ft 514 kts 51°
2026-05-07 15:01 38.93158 115.98755 35298 ft 513 kts 51°
2026-05-07 15:01 38.96751 116.06649 35296 ft 511 kts 51°
2026-05-07 15:02 39.00333 116.14539 35289 ft 510 kts 51°
2026-05-07 15:02 39.03899 116.22423 35294 ft 510 kts 51°
2026-05-07 15:03 39.07456 116.30299 35298 ft 509 kts 51°
2026-05-07 15:03 39.11007 116.38180 35304 ft 508 kts 52°
2026-05-07 15:04 39.14535 116.46039 35305 ft 506 kts 52°
2026-05-07 15:04 39.17506 116.54334 35295 ft 520 kts 69°
2026-05-07 15:05 39.18286 116.63690 35293 ft 534 kts 91°
2026-05-07 15:05 39.17032 116.73153 35286 ft 537 kts 99°
2026-05-07 15:06 39.15564 116.82588 35281 ft 537 kts 99°
2026-05-07 15:06 39.14080 116.92027 35276 ft 538 kts 99°
2026-05-07 15:07 39.12597 117.01473 35270 ft 538 kts 98°
2026-05-07 15:07 39.11291 117.10954 35268 ft 538 kts 97°
2026-05-07 15:08 39.10116 117.20451 35260 ft 538 kts 96°
2026-05-07 15:08 39.09112 117.28353 35261 ft 538 kts 97°
2026-05-07 15:09 39.07940 117.37853 35261 ft 536 kts 91°
2026-05-07 15:09 39.07748 117.47391 35260 ft 533 kts 87°
2026-05-07 15:10 39.07650 117.56938 35263 ft 534 kts 87°
2026-05-07 15:10 39.07545 117.66483 35265 ft 534 kts 87°
2026-05-07 15:11 39.07431 117.76048 35265 ft 534 kts 87°
2026-05-07 15:11 39.07297 117.85607 35262 ft 535 kts 87°
2026-05-07 15:12 39.07154 117.95171 35264 ft 535 kts 88°
2026-05-07 15:12 39.06794 118.04737 35259 ft 538 kts 96°
2026-05-07 15:13 39.05337 118.14201 35254 ft 540 kts 99°
2026-05-07 15:13 39.03836 118.23663 35251 ft 540 kts 100°
2026-05-07 15:14 39.02329 118.33124 35249 ft 540 kts 100°
2026-05-07 15:14 39.00806 118.42588 35246 ft 540 kts 100°
2026-05-07 15:15 38.99277 118.52041 35243 ft 540 kts 100°
2026-05-07 15:15 38.97744 118.61498 35243 ft 541 kts 100°
2026-05-07 15:16 38.96203 118.70958 35242 ft 541 kts 100°
2026-05-07 15:16 38.94655 118.80414 35245 ft 541 kts 101°
2026-05-07 15:17 38.93099 118.89879 35245 ft 542 kts 101°
2026-05-07 15:17 38.91535 118.99346 35237 ft 542 kts 101°
2026-05-07 15:18 38.89957 119.08813 35241 ft 543 kts 101°
2026-05-07 15:18 38.88368 119.18284 35235 ft 543 kts 101°
2026-05-07 15:19 38.86771 119.27769 35233 ft 544 kts 101°
2026-05-07 15:19 38.85161 119.37246 35233 ft 544 kts 101°
2026-05-07 15:20 38.83536 119.46737 35244 ft 545 kts 102°
2026-05-07 15:20 38.81911 119.56229 35257 ft 545 kts 102°
2026-05-07 15:21 38.80282 119.65729 35255 ft 545 kts 102°
2026-05-07 15:21 38.78647 119.75208 35253 ft 545 kts 102°
2026-05-07 15:22 38.76995 119.84701 35251 ft 545 kts 102°
2026-05-07 15:22 38.74823 119.93974 35241 ft 542 kts 121°
2026-05-07 15:23 38.71049 120.02311 35237 ft 541 kts 123°
2026-05-07 15:23 38.67237 120.10619 35241 ft 542 kts 123°
2026-05-07 15:24 38.63413 120.18934 35237 ft 543 kts 122°
2026-05-07 15:24 38.60603 120.27906 35239 ft 547 kts 104°
2026-05-07 15:25 38.59044 120.37426 35239 ft 547 kts 102°
2026-05-07 15:25 38.57481 120.46950 35241 ft 548 kts 102°
2026-05-07 15:26 38.55894 120.56478 35237 ft 548 kts 102°
2026-05-07 15:26 38.54341 120.66010 35238 ft 549 kts 102°
2026-05-07 15:27 38.52806 120.75568 35245 ft 550 kts 102°
2026-05-07 15:27 38.51254 120.85136 35243 ft 550 kts 102°
2026-05-07 15:28 38.49677 120.94688 35242 ft 550 kts 103°
2026-05-07 15:28 38.48088 121.04256 35244 ft 551 kts 103°
2026-05-07 15:29 38.46498 121.13813 35242 ft 551 kts 103°
2026-05-07 15:29 38.44926 121.23381 35245 ft 551 kts 102°
2026-05-07 15:30 38.43387 121.32907 35243 ft 552 kts 102°
2026-05-07 15:30 38.41853 121.42492 35236 ft 552 kts 103°
2026-05-07 15:31 38.40295 121.52079 35231 ft 552 kts 103°
2026-05-07 15:31 38.38697 121.61664 35229 ft 553 kts 103°
2026-05-07 15:32 38.37080 121.71242 35227 ft 553 kts 104°
2026-05-07 15:32 38.35458 121.80833 35222 ft 554 kts 104°
2026-05-07 15:33 38.33829 121.90424 35217 ft 554 kts 104°
2026-05-07 15:33 38.32194 122.00034 35213 ft 555 kts 104°
2026-05-07 15:34 38.30553 122.09643 35218 ft 556 kts 104°
2026-05-07 15:34 38.28902 122.19254 35221 ft 556 kts 104°
2026-05-07 15:35 38.27269 122.28874 35219 ft 557 kts 103°
2026-05-07 15:35 38.25681 122.38511 35213 ft 555 kts 109°
2026-05-07 15:36 38.22606 122.47363 35212 ft 541 kts 129°
2026-05-07 15:36 38.17860 122.54557 35204 ft 526 kts 143°
2026-05-07 15:37 38.12685 122.61151 35190 ft 528 kts 143°
2026-05-07 15:37 38.07537 122.67812 35189 ft 529 kts 143°
2026-05-07 15:38 38.02402 122.74508 35189 ft 530 kts 143°
2026-05-07 15:38 37.97258 122.81218 35186 ft 531 kts 144°
2026-05-07 15:39 37.92098 122.87909 35180 ft 531 kts 145°
2026-05-07 15:39 37.86915 122.94584 35179 ft 532 kts 145°
2026-05-07 15:40 37.81716 123.01266 35173 ft 533 kts 146°
2026-05-07 15:40 37.76511 123.07953 35178 ft 534 kts 146°
2026-05-07 15:41 37.71298 123.14645 35180 ft 534 kts 146°
2026-05-07 15:41 37.66080 123.21324 35186 ft 534 kts 146°
2026-05-07 15:42 37.60852 123.27995 35180 ft 534 kts 147°
2026-05-07 15:42 37.55747 123.34882 35181 ft 546 kts 138°
2026-05-07 15:43 37.51169 123.42563 35187 ft 548 kts 137°
2026-05-07 15:43 37.46595 123.50249 35195 ft 547 kts 137°
2026-05-07 15:44 37.42026 123.57898 35190 ft 546 kts 137°
2026-05-07 15:44 37.37460 123.65521 35189 ft 545 kts 137°
2026-05-07 15:45 37.32893 123.73117 35186 ft 544 kts 138°
2026-05-07 15:45 37.28332 123.80685 35185 ft 543 kts 137°
2026-05-07 15:46 37.21554 123.92083 35178 ft 548 kts 132°
2026-05-07 15:46 37.19683 123.96299 35177 ft 560 kts 122°
2026-05-07 15:47 37.18286 124.00894 35176 ft 569 kts 112°
2026-05-07 15:47 37.17119 124.10808 35170 ft 580 kts 91°
2026-05-07 15:48 37.17469 124.20915 35168 ft 581 kts 89°
2026-05-07 15:48 37.17809 124.31027 35167 ft 581 kts 90°
2026-05-07 15:48 37.17938 124.36081 35033 ft 581 kts 90°
2026-05-07 15:49 37.18045 124.41135 35049 ft 579 kts 90°
2026-05-07 15:49 37.18239 124.51234 35048 ft 580 kts 90°
2026-05-07 15:50 37.18455 124.61333 35036 ft 579 kts 90°
2026-05-07 15:50 37.18573 124.66380 34570 ft 579 kts 90°
2026-05-07 15:50 37.18693 124.71433 33879 ft 582 kts 91°
2026-05-07 15:50 37.18771 124.74860 33352 ft 584 kts 91°
2026-05-07 15:51 37.18860 124.79029 32734 ft 585 kts 91°
2026-05-07 15:51 37.18996 124.85799 31750 ft 588 kts 91°
2026-05-07 15:51 37.19064 124.89264 31258 ft 589 kts 91°
2026-05-07 15:51 37.19166 124.94409 30536 ft 590 kts 91°
2026-05-07 15:52 37.19264 124.99553 29764 ft 591 kts 91°
2026-05-07 15:52 37.19360 125.04702 28963 ft 591 kts 91°
2026-05-07 15:52 37.19456 125.09850 28199 ft 589 kts 91°
2026-05-07 15:52 37.19546 125.14979 27434 ft 587 kts 92°
2026-05-07 15:53 37.19634 125.20080 26669 ft 584 kts 92°
2026-05-07 15:53 37.19719 125.25162 25893 ft 582 kts 92°
2026-05-07 15:53 37.19803 125.30222 25217 ft 578 kts 92°
2026-05-07 15:53 37.19885 125.35229 24686 ft 570 kts 92°
2026-05-07 15:54 37.19965 125.40170 24124 ft 563 kts 92°
2026-05-07 15:54 37.20003 125.45047 23525 ft 555 kts 96°
2026-05-07 15:54 37.19551 125.49789 22849 ft 540 kts 107°
2026-05-07 15:54 37.18652 125.54246 22215 ft 531 kts 108°
2026-05-07 15:55 37.18072 125.58810 21590 ft 528 kts 101°
2026-05-07 15:55 37.17608 125.63345 20987 ft 520 kts 101°
2026-05-07 15:55 37.17142 125.67809 20397 ft 513 kts 101°
2026-05-07 15:55 37.16670 125.72199 19818 ft 505 kts 101°
2026-05-07 15:56 37.16189 125.76531 19244 ft 497 kts 101°
2026-05-07 15:56 37.15700 125.80790 18681 ft 490 kts 101°
2026-05-07 15:56 37.15206 125.84985 18103 ft 483 kts 101°
2026-05-07 15:56 37.14701 125.89169 17462 ft 476 kts 101°
2026-05-07 15:57 37.14199 125.93247 16840 ft 470 kts 101°
2026-05-07 15:57 37.13701 125.97214 16254 ft 463 kts 101°
2026-05-07 15:57 37.13190 126.01206 15352 ft 454 kts 101°
2026-05-07 15:57 37.12681 126.05025 14517 ft 446 kts 101°
2026-05-07 15:58 37.12154 126.08835 13869 ft 442 kts 101°
2026-05-07 15:58 37.11619 126.12598 13313 ft 436 kts 101°
2026-05-07 15:58 37.11079 126.16359 12706 ft 431 kts 101°
2026-05-07 15:58 37.10546 126.20023 12111 ft 426 kts 101°
2026-05-07 15:59 37.10016 126.23604 11523 ft 421 kts 101°
2026-05-07 15:59 37.09470 126.27234 10910 ft 416 kts 101°
2026-05-07 15:59 37.08929 126.30767 10360 ft 410 kts 101°
2026-05-07 15:59 37.08402 126.34159 10221 ft 393 kts 101°
2026-05-07 16:00 37.07896 126.37419 10081 ft 369 kts 101°
2026-05-07 16:00 37.07409 126.40547 9665 ft 355 kts 101°
2026-05-07 16:00 37.06940 126.43508 9117 ft 346 kts 101°
2026-05-07 16:00 37.06525 126.46380 8975 ft 324 kts 92°
2026-05-07 16:01 37.06763 126.49083 8641 ft 306 kts 66°
2026-05-07 16:01 37.07807 126.51301 8161 ft 290 kts 39°
2026-05-07 16:01 37.09392 126.52731 7645 ft 278 kts 23°
2026-05-07 16:01 37.11112 126.53863 7154 ft 273 kts 21°
2026-05-07 16:02 37.12777 126.54910 6688 ft 270 kts 21°
2026-05-07 16:02 37.14468 126.55960 6211 ft 266 kts 21°
2026-05-07 16:02 37.16095 126.56959 5728 ft 261 kts 20°
2026-05-07 16:02 37.17799 126.57563 5238 ft 251 kts
2026-05-07 16:03 37.19429 126.57774 4774 ft 247 kts
2026-05-07 16:03 37.21124 126.57938 4391 ft 239 kts
2026-05-07 16:03 37.22727 126.58085 4258 ft 222 kts
2026-05-07 16:03 37.24215 126.58225 3969 ft 210 kts
2026-05-07 16:04 37.25659 126.58357 3623 ft 206 kts
2026-05-07 16:04 37.27048 126.58370 3594 ft 190 kts 349°
2026-05-07 16:04 37.28231 126.57854 3598 ft 171 kts 330°
2026-05-07 16:04 37.29197 126.57023 3573 ft 165 kts 326°
2026-05-07 16:05 37.30115 126.56213 3405 ft 162 kts 326°
2026-05-07 16:05 37.31044 126.55392 3208 ft 161 kts 326°
2026-05-07 16:05 37.31943 126.54597 2993 ft 159 kts 326°
2026-05-07 16:05 37.32846 126.53797 2790 ft 158 kts 327°
2026-05-07 16:06 37.33758 126.52990 2562 ft 158 kts 327°
2026-05-07 16:06 37.34642 126.52207 2353 ft 150 kts 327°
2026-05-07 16:06 37.35465 126.51476 2163 ft 141 kts 326°
2026-05-07 16:06 37.36246 126.50784 1978 ft 138 kts 326°
2026-05-07 16:07 37.37029 126.50091 1785 ft 137 kts 326°
2026-05-07 16:07 37.37811 126.49397 1602 ft 137 kts 325°
2026-05-07 16:07 37.38588 126.48708 1419 ft 136 kts 324°
2026-05-07 16:07 37.39373 126.48012 1228 ft 136 kts 323°
2026-05-07 16:08 37.40141 126.47330 1041 ft 135 kts 323°
2026-05-07 16:08 37.40899 126.46657 849 ft 135 kts 322°
2026-05-07 16:08 37.41679 126.45965 666 ft 137 kts 322°
2026-05-07 16:08 37.42462 126.45268 470 ft 136 kts 322°
2026-05-07 16:09 37.43229 126.44589 290 ft 134 kts 323°
2026-05-07 16:09 37.43990 126.43913 101 ft 134 kts 323°
2026-05-07 16:09 37.44718 126.43264 33 ft 113 kts 325°
2026-05-07 16:09 37.45218 126.42821 33 ft 63 kts 324°
2026-05-07 16:10 37.45482 126.42650 32 ft 28 kts 351°
2026-05-07 16:10 37.45589 126.42629 33 ft 13 kts 352°
2026-05-07 16:10 37.45686 126.42616 33 ft 14 kts 356°
2026-05-07 16:10 37.45783 126.42581 33 ft 15 kts 326°
2026-05-07 16:11 37.45873 126.42503 31 ft 17 kts 324°
2026-05-07 16:11 37.45970 126.42415 33 ft 17 kts 324°
2026-05-07 16:11 37.46058 126.42383 32 ft 13 kts 26°
2026-05-07 16:11 37.46119 126.42478 33 ft 15 kts 54°
2026-05-07 16:12 37.46182 126.42589 33 ft 16 kts 54°
2026-05-07 16:12 37.46243 126.42699 32 ft 12 kts 65°
2026-05-07 16:12 37.46256 126.42812 33 ft 14 kts 64°
2026-05-07 16:12 37.46234 126.42910 33 ft 13 kts 143°
2026-05-07 16:13 37.46139 126.42993 31 ft 22 kts 144°
2026-05-07 16:13 37.46010 126.43109 32 ft 20 kts 143°
2026-05-07 16:13 37.45938 126.43206 33 ft 13 kts 90°
2026-05-07 16:13 37.45982 126.43302 33 ft 13 kts 55°
2026-05-07 16:14 37.46035 126.43398 33 ft 12 kts 54°
2026-05-07 16:14 37.46095 126.43419 33 ft 2 kts 354°
2026-05-07 16:14 37.46115 126.43415 33 ft 7 kts 351°
2026-05-07 16:14 37.46147 126.43408 33 ft 2 kts 349°
2026-05-07 16:15 37.46154 126.43406 33 ft 0 kts 349°